Preview of NWS' New Version of Forecast
This preview is not operational and should not be used for support decisions.

Regional Weather Roundup (RWR)

Issued by National Weather Service (NWS)

                            
000
ASUS43 KMKX 201721
RWRWI 

WISCONSIN REGIONAL WEATHER ROUNDUP
NATIONAL WEATHER SERVICE MILWAUKEE/SULLIVAN WI
1100 AM CST WED FEB 20 2019

NOTE: "FAIR" INDICATES FEW OR NO CLOUDS BELOW 12,000 FEET WITH NO
SIGNIFICANT WEATHER AND/OR OBSTRUCTIONS TO VISIBILITY.

WIZ001-002-006>008-014>016-023>028-201800-
NORTHWEST WISCONSIN
  
CITY           SKY/WX    TMP DP  RH WIND       PRES   REMARKS
SUPERIOR ARPT  LGT SNOW  19  16  88 E12G17    29.91F VSB 1   WCI   6  
ASHLAND        SNOW      19  17  92 NE12      29.90F VSB 1/4 WCI   7  
HAYWARD        SNOW      22  18  85 E9G17     29.81F VSB 1/2 WCI  12  
SIREN          SNOW      21  18  88 E9        29.77F VSB 1/4 WCI  11  
CUMBERLAND     SNOW      23  19  86 E16G26    29.72F VSB<1/4 WCI  10  
RICE LAKE      SNOW      24  22  93 E13       29.76F VSB 1/4 WCI  12  
CHETEK         SNOW      23  21  91 E10G18    29.74F VSB 1/2 WCI  12  
LADYSMITH      SNOW      25  22  89 E13       29.80F VSB 1/2 WCI  13  
EAU CLAIRE     SNOW      24  21  88 E17G32    29.73F VSB 1/2 WCI  11  
MENOMONIE      LGT SNOW  22  19  87 E18G24    29.71F VSB 1   WCI   7  
NEW RICHMOND   SNOW      24  20  85 E16G23    29.69F VSB 1/2 WCI  11  
OSCEOLA        SNOW      24  22  92 E10       29.73F VSB 1/4 WCI  13  
$$
 
WIZ003>005-009-010-017-018-201800-
NORTH CENTRAL WISCONSIN
  
CITY           SKY/WX    TMP DP  RH WIND       PRES   REMARKS
MANITOWISH WTR NOT AVBL                                               
ARBOR VITAE    LGT SNOW  23  20  88 E8        29.84F VSB 3/4 WCI  14  
WOODRUFF       LGT SNOW  23  20  88 E8        29.84F VSB 3/4 WCI  14  
RHINELANDER    SNOW      24  18  77 E15       29.84F VSB 1/2 WCI  11  
EAGLE RIVER    LGT SNOW  21  17  83 E9        29.87F VSB 3/4 WCI  11  
LAND O LAKES   LGT SNOW  21  18  88 E9        29.90F VSB 3/4 WCI  11  
PHILLIPS       LGT SNOW  21  19  93 E10       29.81F WCI  10          
TOMAHAWK       SNOW      23  20  88 E5        29.82F VSB 1/2 WCI  17  
MEDFORD        SNOW      22  19  89 E15       29.76F VSB 1/4 WCI   9  
MERRILL        SNOW      23  20  90 E10       29.83F VSB 1/4 WCI  12  
$$
 
WIZ029-030-035-036-043>047-201800-
CENTRAL WISCONSIN
  
CITY           SKY/WX    TMP DP  RH WIND       PRES   REMARKS
WAUSAU         SNOW      23  20  88 E17G24    29.79F VSB 1/2 WCI   9  
MOSINEE        LGT SNOW  23  21  93 E15       29.82F VSB 3/4 WCI  10  
MARSHFIELD     SNOW      24  21  88 E17G26    29.77F VSB 1/4 WCI  11  
STEVENS POINT  MIX PCPN  23  22  96 E13G23    29.81F VSB 3/4 WCI  11  
WAUPACA        LGT SNOW  30  24  78 E12G18    29.84F WCI  20          
WAUTOMA        LGT SNOW  27  23  86 E14G23    29.80F FOG     WCI  15  
WISC RAPIDS    LGT SNOW  26  19  74 E16G24    29.78F VSB 1   WCI  14  
CAMP DOUGLAS   LGT SNOW  27  27 100 E20G28    29.75F FOG     WCI  13  
$$
 
WIZ011>013-019>022-031-037>040-048>050-201800-
NORTHEAST WISCONSIN
  
CITY           SKY/WX    TMP DP  RH WIND       PRES   REMARKS
ANTIGO         LGT SNOW  22  19  88 E17G23    29.83F VSB 1   WCI   7  
SHAWANO        MIX PCPN  29  24  82 E15       29.89F VSB 1   WCI  18  
OCONTO         CLOUDY    27  24  89 E9        29.94F WCI  17          
STURGEON BAY   MIX PCPN  27  25  92 E12G17    29.96F FOG     WCI  17  
GREEN BAY      CLOUDY    31  25  78 E18G25    29.88F WCI  19          
MANITOWOC      LGT SNOW  28  22  78 E23G31    29.89F WCI  14          
APPLETON       CLOUDY    28  21  74 E12G23    29.85F WCI  18          
CLINTONVILLE   LGT SNOW  27  23  85 E12G17    29.87F WCI  16          
OSHKOSH        CLOUDY    29  23  78 E17       29.82F WCI  17          
$$
 
WIZ032>034-041-042-053>061-201800-
SOUTHWEST WISCONSIN
  
CITY           SKY/WX    TMP DP  RH WIND       PRES   REMARKS
LA CROSSE      SNOW      29  26  89 SE8       29.73F VSB 1/2 WCI  21  
SPARTA         LGT SNOW  27  25  92 E14       29.74F VSB 3/4 WCI  16  
VIROQUA        CLOUDY    29  28  96 SE18      29.68F VSB 3/4 WCI  17  
BOSCOBEL       SNOW      31  27  85 E8        29.75F VSB 1/2 WCI  23  
PRAIRIE DU CHI LGT SNOW  30  26  86 E13       29.71F VSB 1   WCI  20  
PLATTEVILLE    CLOUDY    30  30 100 E14       29.72F VSB 1/2 WCI  20  
$$

WIZ056-057-062-063-064-067-068-201800-
SOUTH CENTRAL WISCONSIN
  
CITY           SKY/WX    TMP DP  RH WIND       PRES   REMARKS
REEDSBURG      LGT SNOW  28  27  95 E9G18     29.74F VSB 3/4 WCI  19  
BARABOO/DELLS  SNOW      28  26  91 E10G20    29.74F VSB 1/2 WCI  19  
LONE ROCK      LGT SNOW  29  28  96 E14       29.75F VSB 3/4 WCI  18  
MINERAL POINT  LGT SNOW  32  32 100 SE10      29.71F VSB 3/4 WCI  24  
MADISON        LGT SNOW  29  26  89 E14G23    29.76F VSB 3/4 WCI  18  
MIDDLETON      CLOUDY    30  29  93 E12       29.74F VSB 3/4 WCI  21  
WATERTOWN      MIX PCPN  29  29 100 E13G20    29.76F WCI  19          
MONROE         MIX PCPN  32  31  96 MISG      29.71F                  
JANESVILLE     CLOUDY    34  34 100 E17       29.76F FOG     WCI  23  
$$
 
WIZ051-052-058>065-066-070>072-201800-
SOUTHEAST WISCONSIN
  
CITY           SKY/WX    TMP DP  RH WIND       PRES   REMARKS
MILWAUKEE      FRZ RAIN  32  29  88 E18G30    29.84F VSB 3/4 WCI  20  
WAUKESHA       FRZ DRZL  28  27  93 E18G25    29.82F WCI  16          
MILWAUKEE/TIMM LGT SNOW  30  27  86 E14G23    29.86F FOG     WCI  20  
RACINE         MIX PCPN  32  29  88 SE20G29   29.84F VSB 3/4 WCI  20  
KENOSHA        LGT SNOW  33  32  96 SE16G31   29.82F VSB 1   WCI  23  
FOND DU LAC    LGT SNOW  28  23  81 E18G31    29.81F WCI  15          
SHEBOYGAN      LGT SNOW  27  24  89 E15G24    29.86F VSB 1   WCI  15  
WEST BEND      MIX PCPN  28  28 100 E18G25    29.82F VSB 1   WCI  16  
JUNEAU         LGT SNOW  28  26  92 E17G24    29.79F VSB 3/4 WCI  15  
$$

LSZ147-162-201800-
LAKE SUPERIOR
  
STATION/POSITION TIME  TEMP    WIND        PRES    WAVE
                       AIR SEA DIR/SP/G            HT/PER
                 (UTC) (F)     (DEG/KT/KT) (MB)    (FT/S)
DEVILS ISLAND    1700   23      80/ 17/ 19 1016.0F
SAXON HARBOR     1630   20      40/  8/  9 1014.2F
$$
 
LMZ867-665-643>646-201800-
LAKE MICHIGAN
  
STATION/POSITION TIME  TEMP    WIND        PRES    WAVE
                       AIR SEA DIR/SP/G            HT/PER
                 (UTC) (F)     (DEG/KT/KT) (MB)    (FT/S)
CHAMBERS ISLAND  1640   26      80/ 10/ 15 1015.6F
NORTHPORT PIER   1640   26     110/ 12/ 14 1016.3F
KEWAUNEE LAKESHO 1654   29     100/ 19/ 26 1012.5F
SHEBOYGAN LAKESH 1700   28     100/ 24/ 28 1012.2F
PORT WASHINGTON  1640   31     110/ 16/ 24 1012.9F
MILWAUKEE LAKESH 1700   30     110/  5/  6   N/A
KENOSHA   LAKESH 1700   31     130/  3/  4 1010.2
$$

TC  - TEMPERATURE IN CELSIUS
VSB - VISIBILITY IN STATUTE MILES
WCI - WIND CHILL INDEX
HX  - HEAT INDEX